date,time,water_lv
2018-12-01,00:00:00,24.41
2018-12-01,00:10:00,24.41
2018-12-01,00:20:00,24.41
2018-12-01,00:30:00,24.41
2018-12-01,00:40:00,24.43
2018-12-01,00:50:00,24.41
2018-12-01,01:00:00,24.41
2018-12-01,01:10:00,24.41
2018-12-01,01:20:00,24.42
2018-12-01,01:30:00,24.41
2018-12-01,01:40:00,24.42
2018-12-01,01:50:00,24.43
2018-12-01,02:00:00,24.42
2018-12-01,02:10:00,24.4
2018-12-01,02:20:00,24.42
2018-12-01,02:30:00,24.42
2018-12-01,02:40:00,24.42
2018-12-01,02:50:00,24.43
2018-12-01,03:00:00,24.44
2018-12-01,03:10:00,24.4
2018-12-01,03:20:00,24.4
2018-12-01,03:30:00,24.42
2018-12-01,03:40:00,24.43
2018-12-01,03:50:00,24.43
2018-12-01,04:00:00,24.43
2018-12-01,04:10:00,24.41
2018-12-01,04:20:00,24.44
2018-12-01,04:30:00,24.42
2018-12-01,04:40:00,24.42
2018-12-01,04:50:00,24.42
2018-12-01,05:00:00,24.44
2018-12-01,05:10:00,24.43
2018-12-01,05:20:00,24.43
2018-12-01,05:30:00,24.43
2018-12-01,05:40:00,24.43
2018-12-01,05:50:00,24.44
2018-12-01,06:00:00,24.44
2018-12-01,06:10:00,24.43
2018-12-01,06:20:00,24.41
2018-12-01,06:30:00,24.44
2018-12-01,06:40:00,24.44
2018-12-01,06:50:00,24.42
2018-12-01,07:00:00,24.44
2018-12-01,07:10:00,24.43
2018-12-01,07:20:00,24.45
2018-12-01,07:30:00,24.44
2018-12-01,07:40:00,24.45
2018-12-01,07:50:00,24.46
2018-12-01,08:00:00,24.45
2018-12-01,08:10:00,24.47
2018-12-01,08:20:00,24.47
2018-12-01,08:30:00,24.47
2018-12-01,08:40:00,24.47
2018-12-01,08:50:00,24.48
2018-12-01,09:00:00,24.49
2018-12-01,09:10:00,24.48
2018-12-01,09:20:00,24.5
2018-12-01,09:30:00,24.51
2018-12-01,09:40:00,24.51
2018-12-01,09:50:00,24.51
2018-12-01,10:00:00,24.52
2018-12-01,10:10:00,24.53
2018-12-01,10:20:00,24.53
2018-12-01,10:30:00,-
2018-12-01,10:40:00,-
2018-12-01,10:50:00,-
2018-12-01,11:00:00,-
2018-12-01,11:10:00,-
2018-12-01,11:20:00,-
2018-12-01,11:30:00,-
2018-12-01,11:40:00,-
2018-12-01,11:50:00,-
2018-12-01,12:00:00,-
2018-12-01,12:10:00,-
2018-12-01,12:20:00,-
2018-12-01,12:30:00,-
2018-12-01,12:40:00,-
2018-12-01,12:50:00,24.57
2018-12-01,13:00:00,-
2018-12-01,13:10:00,24.58
2018-12-01,13:20:00,24.57
2018-12-01,13:30:00,24.58
2018-12-01,13:40:00,24.57
2018-12-01,13:50:00,24.57
2018-12-01,14:00:00,24.57
2018-12-01,14:10:00,24.58
2018-12-01,14:20:00,24.58
2018-12-01,14:30:00,24.58
2018-12-01,14:40:00,24.58
2018-12-01,14:50:00,24.57
2018-12-01,15:00:00,24.59
2018-12-01,15:10:00,24.6
2018-12-01,15:20:00,24.59
2018-12-01,15:30:00,24.6
2018-12-01,15:40:00,24.6
2018-12-01,15:50:00,24.61
2018-12-01,16:00:00,24.62
2018-12-01,16:10:00,24.62
2018-12-01,16:20:00,24.61
2018-12-01,16:30:00,24.62
2018-12-01,16:40:00,24.63
2018-12-01,16:50:00,24.64
2018-12-01,17:00:00,24.64
2018-12-01,17:10:00,24.64
2018-12-01,17:20:00,24.65
2018-12-01,17:30:00,24.65
2018-12-01,17:40:00,24.64
2018-12-01,17:50:00,24.64
2018-12-01,18:00:00,24.65
2018-12-01,18:10:00,24.65
2018-12-01,18:20:00,24.66
2018-12-01,18:30:00,24.64
2018-12-01,18:40:00,24.65
2018-12-01,18:50:00,24.63
2018-12-01,19:00:00,24.65
2018-12-01,19:10:00,24.64
2018-12-01,19:20:00,24.66
2018-12-01,19:30:00,24.65
2018-12-01,19:40:00,24.65
2018-12-01,19:50:00,24.66
2018-12-01,20:00:00,24.66
2018-12-01,20:10:00,24.65
2018-12-01,20:20:00,24.66
2018-12-01,20:30:00,24.66
2018-12-01,20:40:00,24.66
2018-12-01,20:50:00,24.66
2018-12-01,21:00:00,24.67
2018-12-01,21:10:00,24.67
2018-12-01,21:20:00,24.67
2018-12-01,21:30:00,24.69
2018-12-01,21:40:00,24.69
2018-12-01,21:50:00,24.68
2018-12-01,22:00:00,24.68
2018-12-01,22:10:00,24.7
2018-12-01,22:20:00,24.7
2018-12-01,22:30:00,24.7
2018-12-01,22:40:00,24.71
2018-12-01,22:50:00,24.7
2018-12-01,23:00:00,24.7
2018-12-01,23:10:00,24.72
2018-12-01,23:20:00,24.7
2018-12-01,23:30:00,24.71
2018-12-01,23:40:00,24.71
2018-12-01,23:50:00,24.72
2018-12-02,00:00:00,24.71
2018-12-02,00:10:00,24.73
2018-12-02,00:20:00,24.73
2018-12-02,00:30:00,24.72
2018-12-02,00:40:00,24.72
2018-12-02,00:50:00,24.73
2018-12-02,01:00:00,24.72
2018-12-02,01:10:00,24.72
2018-12-02,01:20:00,24.71
2018-12-02,01:30:00,24.72
2018-12-02,01:40:00,24.73
2018-12-02,01:50:00,24.72
2018-12-02,02:00:00,24.72
2018-12-02,02:10:00,24.73
2018-12-02,02:20:00,24.71
2018-12-02,02:30:00,24.7
2018-12-02,02:40:00,24.69
2018-12-02,02:50:00,24.71
2018-12-02,03:00:00,24.69
2018-12-02,03:10:00,24.68
2018-12-02,03:20:00,24.7
2018-12-02,03:30:00,24.69
2018-12-02,03:40:00,24.69
2018-12-02,03:50:00,24.69
2018-12-02,04:00:00,24.68
2018-12-02,04:10:00,24.68
2018-12-02,04:20:00,24.68
2018-12-02,04:30:00,24.68
2018-12-02,04:40:00,24.68
2018-12-02,04:50:00,24.69
2018-12-02,05:00:00,24.67
2018-12-02,05:10:00,24.67
2018-12-02,05:20:00,24.68
2018-12-02,05:30:00,24.68
2018-12-02,05:40:00,24.66
2018-12-02,05:50:00,24.67
2018-12-02,06:00:00,24.66
2018-12-02,06:10:00,24.66
2018-12-02,06:20:00,24.66
2018-12-02,06:30:00,24.66
2018-12-02,06:40:00,24.64
2018-12-02,06:50:00,24.66
2018-12-02,07:00:00,24.67
2018-12-02,07:10:00,24.66
2018-12-02,07:20:00,24.65
2018-12-02,07:30:00,24.64
2018-12-02,07:40:00,24.64
2018-12-02,07:50:00,24.62
2018-12-02,08:00:00,24.61
2018-12-02,08:10:00,24.63
2018-12-02,08:20:00,24.64
2018-12-02,08:30:00,24.63
2018-12-02,08:40:00,24.63
2018-12-02,08:50:00,24.63
2018-12-02,09:00:00,24.63
2018-12-02,09:10:00,24.63
2018-12-02,09:20:00,24.62
2018-12-02,09:30:00,24.61
2018-12-02,09:40:00,24.62
2018-12-02,09:50:00,24.62
2018-12-02,10:00:00,24.61
2018-12-02,10:10:00,24.62
2018-12-02,10:20:00,24.6
2018-12-02,10:30:00,24.61
2018-12-02,10:40:00,24.59
2018-12-02,10:50:00,24.61
2018-12-02,11:00:00,24.61
2018-12-02,11:10:00,24.59
2018-12-02,11:20:00,24.6
2018-12-02,11:30:00,24.59
2018-12-02,11:40:00,24.58
2018-12-02,11:50:00,24.56
2018-12-02,12:00:00,24.59
2018-12-02,12:10:00,24.57
2018-12-02,12:20:00,24.6
2018-12-02,12:30:00,24.58
2018-12-02,12:40:00,24.58
2018-12-02,12:50:00,24.57
2018-12-02,13:00:00,24.57
2018-12-02,13:10:00,24.57
2018-12-02,13:20:00,24.57
2018-12-02,13:30:00,24.57
2018-12-02,13:40:00,24.57
2018-12-02,13:50:00,24.56
2018-12-02,14:00:00,24.56
2018-12-02,14:10:00,24.54
2018-12-02,14:20:00,24.56
2018-12-02,14:30:00,24.55
2018-12-02,14:40:00,24.56
2018-12-02,14:50:00,24.54
2018-12-02,15:00:00,24.54
2018-12-02,15:10:00,24.54
2018-12-02,15:20:00,24.52
2018-12-02,15:30:00,24.54
2018-12-02,15:40:00,24.53
2018-12-02,15:50:00,24.55
2018-12-02,16:00:00,24.53
2018-12-02,16:10:00,24.53
2018-12-02,16:20:00,24.53
2018-12-02,16:30:00,24.54
2018-12-02,16:40:00,24.52
2018-12-02,16:50:00,24.54
2018-12-02,17:00:00,24.53
2018-12-02,17:10:00,24.52
2018-12-02,17:20:00,24.54
2018-12-02,17:30:00,24.53
2018-12-02,17:40:00,24.54
2018-12-02,17:50:00,24.52
2018-12-02,18:00:00,24.54
2018-12-02,18:10:00,24.54
2018-12-02,18:20:00,24.53
2018-12-02,18:30:00,24.55
2018-12-02,18:40:00,24.55
2018-12-02,18:50:00,24.56
2018-12-02,19:00:00,24.54
2018-12-02,19:10:00,24.53
2018-12-02,19:20:00,24.54
2018-12-02,19:30:00,24.55
2018-12-02,19:40:00,24.55
2018-12-02,19:50:00,24.54
2018-12-02,20:00:00,24.55
2018-12-02,20:10:00,24.56
2018-12-02,20:20:00,24.55
2018-12-02,20:30:00,24.55
2018-12-02,20:40:00,24.55
2018-12-02,20:50:00,24.55
2018-12-02,21:00:00,24.56
2018-12-02,21:10:00,24.55
2018-12-02,21:20:00,24.56
2018-12-02,21:30:00,24.53
2018-12-02,21:40:00,24.56
2018-12-02,21:50:00,24.55
2018-12-02,22:00:00,24.55
2018-12-02,22:10:00,24.56
2018-12-02,22:20:00,24.56
2018-12-02,22:30:00,24.55
2018-12-02,22:40:00,24.55
2018-12-02,22:50:00,24.55
2018-12-02,23:00:00,24.53
2018-12-02,23:10:00,24.54
2018-12-02,23:20:00,24.54
2018-12-02,23:30:00,24.51
2018-12-02,23:40:00,24.53
2018-12-02,23:50:00,24.53
2018-12-03,00:00:00,24.51
2018-12-03,00:10:00,24.53
2018-12-03,00:20:00,24.53
2018-12-03,00:30:00,24.51
2018-12-03,00:40:00,24.51
2018-12-03,00:50:00,24.53
2018-12-03,01:00:00,24.49
2018-12-03,01:10:00,24.52
2018-12-03,01:20:00,24.51
2018-12-03,01:30:00,24.5
2018-12-03,01:40:00,24.49
2018-12-03,01:50:00,24.49
2018-12-03,02:00:00,24.48
2018-12-03,02:10:00,24.49
2018-12-03,02:20:00,24.49
2018-12-03,02:30:00,24.49
2018-12-03,02:40:00,24.49
2018-12-03,02:50:00,24.49
2018-12-03,03:00:00,24.47
2018-12-03,03:10:00,24.47
2018-12-03,03:20:00,24.47
2018-12-03,03:30:00,24.47
2018-12-03,03:40:00,24.47
2018-12-03,03:50:00,24.46
2018-12-03,04:00:00,24.46
2018-12-03,04:10:00,24.47
2018-12-03,04:20:00,24.46
2018-12-03,04:30:00,24.47
2018-12-03,04:40:00,24.46
2018-12-03,04:50:00,24.46
2018-12-03,05:00:00,24.45
2018-12-03,05:10:00,24.46
2018-12-03,05:20:00,24.44
2018-12-03,05:30:00,24.47
2018-12-03,05:40:00,24.45
2018-12-03,05:50:00,24.45
2018-12-03,06:00:00,24.45
2018-12-03,06:10:00,24.45
2018-12-03,06:20:00,24.43
2018-12-03,06:30:00,24.44
2018-12-03,06:40:00,24.44
2018-12-03,06:50:00,24.43
2018-12-03,07:00:00,24.46
2018-12-03,07:10:00,24.44
2018-12-03,07:20:00,24.43
2018-12-03,07:30:00,24.44
2018-12-03,07:40:00,24.43
2018-12-03,07:50:00,24.44
2018-12-03,08:00:00,24.44
2018-12-03,08:10:00,24.43
2018-12-03,08:20:00,24.43
2018-12-03,08:30:00,24.44
2018-12-03,08:40:00,24.42
2018-12-03,08:50:00,24.43
2018-12-03,09:00:00,24.44
2018-12-03,09:10:00,24.45
2018-12-03,09:20:00,24.42
2018-12-03,09:30:00,24.44
2018-12-03,09:40:00,24.4
2018-12-03,09:50:00,24.43
2018-12-03,10:00:00,24.44
2018-12-03,10:10:00,24.42
2018-12-03,10:20:00,24.42
2018-12-03,10:30:00,24.43
2018-12-03,10:40:00,24.42
2018-12-03,10:50:00,24.42
2018-12-03,11:00:00,24.41
2018-12-03,11:10:00,24.43
2018-12-03,11:20:00,24.43
2018-12-03,11:30:00,24.42
2018-12-03,11:40:00,24.42
2018-12-03,11:50:00,24.43
2018-12-03,12:00:00,24.44
2018-12-03,12:10:00,24.43
2018-12-03,12:20:00,24.43
2018-12-03,12:30:00,24.44
2018-12-03,12:40:00,24.44
2018-12-03,12:50:00,24.45
2018-12-03,13:00:00,24.43
2018-12-03,13:10:00,24.44
2018-12-03,13:20:00,24.43
2018-12-03,13:30:00,24.44
2018-12-03,13:40:00,24.44
2018-12-03,13:50:00,24.44
2018-12-03,14:00:00,24.45
2018-12-03,14:10:00,24.45
2018-12-03,14:20:00,24.45
2018-12-03,14:30:00,24.44
2018-12-03,14:40:00,24.45
2018-12-03,14:50:00,24.46
2018-12-03,15:00:00,24.45
2018-12-03,15:10:00,24.44
2018-12-03,15:20:00,24.46
2018-12-03,15:30:00,24.47
2018-12-03,15:40:00,24.46
2018-12-03,15:50:00,24.44
2018-12-03,16:00:00,24.46
2018-12-03,16:10:00,24.45
2018-12-03,16:20:00,24.46
2018-12-03,16:30:00,24.47
2018-12-03,16:40:00,24.45
2018-12-03,16:50:00,24.48
2018-12-03,17:00:00,24.47
2018-12-03,17:10:00,24.47
2018-12-03,17:20:00,24.47
2018-12-03,17:30:00,24.48
2018-12-03,17:40:00,24.49
2018-12-03,17:50:00,24.45
2018-12-03,18:00:00,24.49
2018-12-03,18:10:00,24.47
2018-12-03,18:20:00,24.5
2018-12-03,18:30:00,24.51
2018-12-03,18:40:00,24.51
2018-12-03,18:50:00,24.52
2018-12-03,19:00:00,24.52
2018-12-03,19:10:00,24.52
2018-12-03,19:20:00,24.55
2018-12-03,19:30:00,24.52
2018-12-03,19:40:00,24.55
2018-12-03,19:50:00,24.56
2018-12-03,20:00:00,24.54
2018-12-03,20:10:00,24.55
2018-12-03,20:20:00,24.56
2018-12-03,20:30:00,24.55
2018-12-03,20:40:00,24.55
2018-12-03,20:50:00,24.55
2018-12-03,21:00:00,24.55
2018-12-03,21:10:00,24.57
2018-12-03,21:20:00,24.56
2018-12-03,21:30:00,24.57
2018-12-03,21:40:00,24.56
2018-12-03,21:50:00,24.55
2018-12-03,22:00:00,24.56
2018-12-03,22:10:00,24.57
2018-12-03,22:20:00,24.56
2018-12-03,22:30:00,24.58
2018-12-03,22:40:00,24.57
2018-12-03,22:50:00,24.58
2018-12-03,23:00:00,24.57
2018-12-03,23:10:00,24.59
2018-12-03,23:20:00,24.59
2018-12-03,23:30:00,24.59
2018-12-03,23:40:00,24.59
2018-12-03,23:50:00,24.61
2018-12-04,00:00:00,24.61
2018-12-04,00:10:00,24.62
2018-12-04,00:20:00,24.62
2018-12-04,00:30:00,24.64
2018-12-04,00:40:00,24.64
2018-12-04,00:50:00,24.64
2018-12-04,01:00:00,24.64
2018-12-04,01:10:00,24.67
2018-12-04,01:20:00,24.67
2018-12-04,01:30:00,24.69
2018-12-04,01:40:00,24.71
2018-12-04,01:50:00,24.71
2018-12-04,02:00:00,24.73
2018-12-04,02:10:00,24.74
2018-12-04,02:20:00,24.74
2018-12-04,02:30:00,24.76
2018-12-04,02:40:00,24.76
2018-12-04,02:50:00,24.77
2018-12-04,03:00:00,24.78
2018-12-04,03:10:00,24.79
2018-12-04,03:20:00,24.81
2018-12-04,03:30:00,24.83
2018-12-04,03:40:00,24.84
2018-12-04,03:50:00,24.86
2018-12-04,04:00:00,24.88
2018-12-04,04:10:00,24.88
2018-12-04,04:20:00,24.89
2018-12-04,04:30:00,24.91
2018-12-04,04:40:00,24.93
2018-12-04,04:50:00,24.93
2018-12-04,05:00:00,24.97
2018-12-04,05:10:00,24.94
2018-12-04,05:20:00,25
2018-12-04,05:30:00,25.03
2018-12-04,05:40:00,25.04
2018-12-04,05:50:00,25.07
2018-12-04,06:00:00,25.09
2018-12-04,06:10:00,25.11
2018-12-04,06:20:00,25.12
2018-12-04,06:30:00,25.13
2018-12-04,06:40:00,25.14
2018-12-04,06:50:00,25.14
2018-12-04,07:00:00,25.14
2018-12-04,07:10:00,25.16
2018-12-04,07:20:00,25.18
2018-12-04,07:30:00,25.18
2018-12-04,07:40:00,25.18
2018-12-04,07:50:00,25.19
2018-12-04,08:00:00,25.19
2018-12-04,08:10:00,25.2
2018-12-04,08:20:00,25.2
2018-12-04,08:30:00,25.21
2018-12-04,08:40:00,25.21
2018-12-04,08:50:00,25.21
2018-12-04,09:00:00,25.22
2018-12-04,09:10:00,25.21
2018-12-04,09:20:00,25.21
2018-12-04,09:30:00,25.22
2018-12-04,09:40:00,25.22
2018-12-04,09:50:00,25.22
2018-12-04,10:00:00,25.21
2018-12-04,10:10:00,25.22
2018-12-04,10:20:00,25.22
2018-12-04,10:30:00,25.22
2018-12-04,10:40:00,25.22
2018-12-04,10:50:00,25.22
2018-12-04,11:00:00,25.22
2018-12-04,11:10:00,25.22
2018-12-04,11:20:00,25.22
2018-12-04,11:30:00,25.21
2018-12-04,11:40:00,25.22
2018-12-04,11:50:00,25.22
2018-12-04,12:00:00,25.21
2018-12-04,12:10:00,25.22
2018-12-04,12:20:00,25.22
2018-12-04,12:30:00,25.23
2018-12-04,12:40:00,25.23
2018-12-04,12:50:00,25.22
2018-12-04,13:00:00,25.22
2018-12-04,13:10:00,25.23
2018-12-04,13:20:00,25.22
2018-12-04,13:30:00,25.22
2018-12-04,13:40:00,25.21
2018-12-04,13:50:00,25.23
2018-12-04,14:00:00,25.22
2018-12-04,14:10:00,25.21
2018-12-04,14:20:00,25.22
2018-12-04,14:30:00,25.22
2018-12-04,14:40:00,25.21
2018-12-04,14:50:00,25.21
2018-12-04,15:00:00,25.21
2018-12-04,15:10:00,25.19
2018-12-04,15:20:00,25.2
2018-12-04,15:30:00,25.2
2018-12-04,15:40:00,25.2
2018-12-04,15:50:00,25.21
2018-12-04,16:00:00,25.2
2018-12-04,16:10:00,25.2
2018-12-04,16:20:00,25.21
2018-12-04,16:30:00,25.2
2018-12-04,16:40:00,25.21
2018-12-04,16:50:00,25.21
2018-12-04,17:00:00,25.22
2018-12-04,17:10:00,25.23
2018-12-04,17:20:00,25.23
2018-12-04,17:30:00,25.25
2018-12-04,17:40:00,25.25
2018-12-04,17:50:00,25.27
2018-12-04,18:00:00,25.27
2018-12-04,18:10:00,25.29
2018-12-04,18:20:00,25.28
2018-12-04,18:30:00,25.29
2018-12-04,18:40:00,25.3
2018-12-04,18:50:00,25.3
2018-12-04,19:00:00,25.3
2018-12-04,19:10:00,25.3
2018-12-04,19:20:00,25.3
2018-12-04,19:30:00,25.3
2018-12-04,19:40:00,25.28
2018-12-04,19:50:00,25.29
2018-12-04,20:00:00,25.27
2018-12-04,20:10:00,25.28
2018-12-04,20:20:00,25.29
2018-12-04,20:30:00,25.28
2018-12-04,20:40:00,25.28
2018-12-04,20:50:00,25.28
2018-12-04,21:00:00,25.28
2018-12-04,21:10:00,25.27
2018-12-04,21:20:00,25.26
2018-12-04,21:30:00,25.29
2018-12-04,21:40:00,25.29
2018-12-04,21:50:00,25.29
2018-12-04,22:00:00,25.3
2018-12-04,22:10:00,25.32
2018-12-04,22:20:00,25.34
2018-12-04,22:30:00,25.35
2018-12-04,22:40:00,25.4
2018-12-04,22:50:00,25.43
2018-12-04,23:00:00,25.49
2018-12-04,23:10:00,25.54
2018-12-04,23:20:00,25.59
2018-12-04,23:30:00,25.66
2018-12-04,23:40:00,25.72
2018-12-04,23:50:00,25.77
2018-12-05,00:00:00,25.84
2018-12-05,00:10:00,25.89
2018-12-05,00:20:00,25.94
2018-12-05,00:30:00,25.98
2018-12-05,00:40:00,26.02
2018-12-05,00:50:00,26.06
2018-12-05,01:00:00,26.09
2018-12-05,01:10:00,26.12
2018-12-05,01:20:00,26.15
2018-12-05,01:30:00,26.18
2018-12-05,01:40:00,26.2
2018-12-05,01:50:00,26.2
2018-12-05,02:00:00,26.23
2018-12-05,02:10:00,26.24
2018-12-05,02:20:00,26.23
2018-12-05,02:30:00,26.24
2018-12-05,02:40:00,26.26
2018-12-05,02:50:00,26.25
2018-12-05,03:00:00,26.25
2018-12-05,03:10:00,26.25
2018-12-05,03:20:00,26.25
2018-12-05,03:30:00,26.26
2018-12-05,03:40:00,26.26
2018-12-05,03:50:00,26.24
2018-12-05,04:00:00,26.25
2018-12-05,04:10:00,26.22
2018-12-05,04:20:00,26.22
2018-12-05,04:30:00,26.21
2018-12-05,04:40:00,26.2
2018-12-05,04:50:00,26.18
2018-12-05,05:00:00,26.17
2018-12-05,05:10:00,26.15
2018-12-05,05:20:00,26.14
2018-12-05,05:30:00,26.11
2018-12-05,05:40:00,26.09
2018-12-05,05:50:00,26.07
2018-12-05,06:00:00,26.06
2018-12-05,06:10:00,26.03
2018-12-05,06:20:00,26.01
2018-12-05,06:30:00,26
2018-12-05,06:40:00,25.97
2018-12-05,06:50:00,25.95
2018-12-05,07:00:00,25.94
2018-12-05,07:10:00,25.91
2018-12-05,07:20:00,25.89
2018-12-05,07:30:00,25.86
2018-12-05,07:40:00,25.85
2018-12-05,07:50:00,25.81
2018-12-05,08:00:00,25.8
2018-12-05,08:10:00,25.78
2018-12-05,08:20:00,25.76
2018-12-05,08:30:00,25.74
2018-12-05,08:40:00,25.71
2018-12-05,08:50:00,25.69
2018-12-05,09:00:00,25.68
2018-12-05,09:10:00,25.66
2018-12-05,09:20:00,25.65
2018-12-05,09:30:00,25.63
2018-12-05,09:40:00,25.62
2018-12-05,09:50:00,25.61
2018-12-05,10:00:00,25.58
2018-12-05,10:10:00,25.58
2018-12-05,10:20:00,25.56
2018-12-05,10:30:00,25.55
2018-12-05,10:40:00,25.55
2018-12-05,10:50:00,25.53
2018-12-05,11:00:00,25.53
2018-12-05,11:10:00,25.51
2018-12-05,11:20:00,25.49
2018-12-05,11:30:00,25.48
2018-12-05,11:40:00,25.49
2018-12-05,11:50:00,25.46
2018-12-05,12:00:00,25.48
2018-12-05,12:10:00,25.46
2018-12-05,12:20:00,25.46
2018-12-05,12:30:00,25.45
2018-12-05,12:40:00,25.45
2018-12-05,12:50:00,25.45
2018-12-05,13:00:00,25.44
2018-12-05,13:10:00,25.45
2018-12-05,13:20:00,25.45
2018-12-05,13:30:00,25.44
2018-12-05,13:40:00,25.44
2018-12-05,13:50:00,25.44
2018-12-05,14:00:00,25.43
2018-12-05,14:10:00,25.43
2018-12-05,14:20:00,25.45
2018-12-05,14:30:00,25.45
2018-12-05,14:40:00,25.44
2018-12-05,14:50:00,25.45
2018-12-05,15:00:00,25.43
2018-12-05,15:10:00,25.44
2018-12-05,15:20:00,25.44
2018-12-05,15:30:00,25.45
2018-12-05,15:40:00,25.44
2018-12-05,15:50:00,25.45
2018-12-05,16:00:00,25.45
2018-12-05,16:10:00,25.46
2018-12-05,16:20:00,25.45
2018-12-05,16:30:00,25.46
2018-12-05,16:40:00,25.46
2018-12-05,16:50:00,25.47
2018-12-05,17:00:00,25.48
2018-12-05,17:10:00,25.47
2018-12-05,17:20:00,25.49
2018-12-05,17:30:00,25.48
2018-12-05,17:40:00,25.51
2018-12-05,17:50:00,25.5
2018-12-05,18:00:00,25.51
2018-12-05,18:10:00,25.52
2018-12-05,18:20:00,25.53
2018-12-05,18:30:00,25.55
2018-12-05,18:40:00,25.55
2018-12-05,18:50:00,25.57
2018-12-05,19:00:00,25.58
2018-12-05,19:10:00,25.61
2018-12-05,19:20:00,25.62
2018-12-05,19:30:00,25.63
2018-12-05,19:40:00,25.66
2018-12-05,19:50:00,25.68
2018-12-05,20:00:00,25.71
2018-12-05,20:10:00,25.73
2018-12-05,20:20:00,25.75
2018-12-05,20:30:00,25.78
2018-12-05,20:40:00,25.79
2018-12-05,20:50:00,25.81
2018-12-05,21:00:00,25.84
2018-12-05,21:10:00,25.85
2018-12-05,21:20:00,25.87
2018-12-05,21:30:00,25.89
2018-12-05,21:40:00,25.9
2018-12-05,21:50:00,25.92
2018-12-05,22:00:00,25.92
2018-12-05,22:10:00,25.95
2018-12-05,22:20:00,25.95
2018-12-05,22:30:00,25.96
2018-12-05,22:40:00,25.97
2018-12-05,22:50:00,25.98
2018-12-05,23:00:00,25.99
2018-12-05,23:10:00,25.99
2018-12-05,23:20:00,25.99
2018-12-05,23:30:00,26
2018-12-05,23:40:00,26
2018-12-05,23:50:00,25.99
2018-12-06,00:00:00,26
2018-12-06,00:10:00,26
2018-12-06,00:20:00,26
2018-12-06,00:30:00,25.99
2018-12-06,00:40:00,25.99
2018-12-06,00:50:00,25.99
2018-12-06,01:00:00,25.98
2018-12-06,01:10:00,25.99
2018-12-06,01:20:00,25.98
2018-12-06,01:30:00,25.97
2018-12-06,01:40:00,25.97
2018-12-06,01:50:00,25.96
2018-12-06,02:00:00,25.96
2018-12-06,02:10:00,25.95
2018-12-06,02:20:00,25.94
2018-12-06,02:30:00,25.94
2018-12-06,02:40:00,25.93
2018-12-06,02:50:00,25.93
2018-12-06,03:00:00,25.93
2018-12-06,03:10:00,25.92
2018-12-06,03:20:00,25.92
2018-12-06,03:30:00,25.9
2018-12-06,03:40:00,25.91
2018-12-06,03:50:00,25.9
2018-12-06,04:00:00,25.89
2018-12-06,04:10:00,25.89
2018-12-06,04:20:00,25.88
2018-12-06,04:30:00,25.87
2018-12-06,04:40:00,25.86
2018-12-06,04:50:00,25.86
2018-12-06,05:00:00,25.85
2018-12-06,05:10:00,25.85
2018-12-06,05:20:00,25.83
2018-12-06,05:30:00,25.83
2018-12-06,05:40:00,25.83
2018-12-06,05:50:00,25.82
2018-12-06,06:00:00,25.82
2018-12-06,06:10:00,25.8
2018-12-06,06:20:00,25.8
2018-12-06,06:30:00,25.79
2018-12-06,06:40:00,25.79
2018-12-06,06:50:00,25.79
2018-12-06,07:00:00,25.78
2018-12-06,07:10:00,25.77
2018-12-06,07:20:00,25.77
2018-12-06,07:30:00,25.75
2018-12-06,07:40:00,25.74
2018-12-06,07:50:00,25.75
2018-12-06,08:00:00,25.74
2018-12-06,08:10:00,25.75
2018-12-06,08:20:00,25.73
2018-12-06,08:30:00,25.74
2018-12-06,08:40:00,25.73
2018-12-06,08:50:00,25.74
2018-12-06,09:00:00,25.73
2018-12-06,09:10:00,25.73
2018-12-06,09:20:00,25.74
2018-12-06,09:30:00,25.74
2018-12-06,09:40:00,25.75
2018-12-06,09:50:00,25.77
2018-12-06,10:00:00,25.77
2018-12-06,10:10:00,25.77
2018-12-06,10:20:00,25.78
2018-12-06,10:30:00,25.79
2018-12-06,10:40:00,25.81
2018-12-06,10:50:00,25.81
2018-12-06,11:00:00,25.83
2018-12-06,11:10:00,25.83
2018-12-06,11:20:00,25.86
2018-12-06,11:30:00,25.85
2018-12-06,11:40:00,25.87
2018-12-06,11:50:00,25.88
2018-12-06,12:00:00,25.88
2018-12-06,12:10:00,25.89
2018-12-06,12:20:00,25.9
2018-12-06,12:30:00,25.9
2018-12-06,12:40:00,25.92
2018-12-06,12:50:00,25.91
2018-12-06,13:00:00,25.92
2018-12-06,13:10:00,25.93
2018-12-06,13:20:00,25.92
2018-12-06,13:30:00,25.92
2018-12-06,13:40:00,25.93
2018-12-06,13:50:00,25.93
2018-12-06,14:00:00,25.93
2018-12-06,14:10:00,25.94
2018-12-06,14:20:00,25.94
2018-12-06,14:30:00,25.95
2018-12-06,14:40:00,25.96
2018-12-06,14:50:00,25.97
2018-12-06,15:00:00,25.97
2018-12-06,15:10:00,25.97
2018-12-06,15:20:00,25.98
2018-12-06,15:30:00,26
2018-12-06,15:40:00,26.01
2018-12-06,15:50:00,26.02
2018-12-06,16:00:00,26.03
2018-12-06,16:10:00,26.05
2018-12-06,16:20:00,26.06
2018-12-06,16:30:00,26.07
2018-12-06,16:40:00,26.09
2018-12-06,16:50:00,26.09
2018-12-06,17:00:00,26.11
2018-12-06,17:10:00,26.12
2018-12-06,17:20:00,26.12
2018-12-06,17:30:00,26.13
2018-12-06,17:40:00,26.14
2018-12-06,17:50:00,26.14
2018-12-06,18:00:00,26.15
2018-12-06,18:10:00,26.15
2018-12-06,18:20:00,26.16
2018-12-06,18:30:00,26.16
2018-12-06,18:40:00,26.17
2018-12-06,18:50:00,26.18
2018-12-06,19:00:00,26.17
2018-12-06,19:10:00,26.18
2018-12-06,19:20:00,26.16
2018-12-06,19:30:00,26.18
2018-12-06,19:40:00,26.16
2018-12-06,19:50:00,26.16
2018-12-06,20:00:00,26.14
2018-12-06,20:10:00,26.15
2018-12-06,20:20:00,26.14
2018-12-06,20:30:00,26.14
2018-12-06,20:40:00,26.12
2018-12-06,20:50:00,26.12
2018-12-06,21:00:00,26.11
2018-12-06,21:10:00,26.11
2018-12-06,21:20:00,26.09
2018-12-06,21:30:00,26.08
2018-12-06,21:40:00,26.08
2018-12-06,21:50:00,26.06
2018-12-06,22:00:00,26.05
2018-12-06,22:10:00,26.02
2018-12-06,22:20:00,26.03
2018-12-06,22:30:00,26.02
2018-12-06,22:40:00,26.01
2018-12-06,22:50:00,25.99
2018-12-06,23:00:00,25.98
2018-12-06,23:10:00,25.97
2018-12-06,23:20:00,25.97
2018-12-06,23:30:00,25.96
2018-12-06,23:40:00,25.94
2018-12-06,23:50:00,25.94
2018-12-07,00:00:00,25.91
2018-12-07,00:10:00,25.91
2018-12-07,00:20:00,25.89
2018-12-07,00:30:00,25.88
2018-12-07,00:40:00,25.86
2018-12-07,00:50:00,25.86
2018-12-07,01:00:00,25.84
2018-12-07,01:10:00,25.84
2018-12-07,01:20:00,25.81
2018-12-07,01:30:00,25.81
2018-12-07,01:40:00,25.8
2018-12-07,01:50:00,25.79
2018-12-07,02:00:00,25.77
2018-12-07,02:10:00,25.77
2018-12-07,02:20:00,25.76
2018-12-07,02:30:00,25.75
2018-12-07,02:40:00,25.74
2018-12-07,02:50:00,25.73
2018-12-07,03:00:00,25.71
2018-12-07,03:10:00,25.72
2018-12-07,03:20:00,25.7
2018-12-07,03:30:00,25.69
2018-12-07,03:40:00,25.68
2018-12-07,03:50:00,25.67
2018-12-07,04:00:00,25.66
2018-12-07,04:10:00,25.66
2018-12-07,04:20:00,25.65
2018-12-07,04:30:00,25.64
2018-12-07,04:40:00,25.63
2018-12-07,04:50:00,25.62
2018-12-07,05:00:00,25.63
2018-12-07,05:10:00,25.61
2018-12-07,05:20:00,25.6
2018-12-07,05:30:00,25.59
2018-12-07,05:40:00,25.59
2018-12-07,05:50:00,25.57
2018-12-07,06:00:00,25.57
2018-12-07,06:10:00,25.56
2018-12-07,06:20:00,25.56
2018-12-07,06:30:00,25.56
2018-12-07,06:40:00,25.55
2018-12-07,06:50:00,25.53
2018-12-07,07:00:00,25.53
2018-12-07,07:10:00,25.51
2018-12-07,07:20:00,25.51
2018-12-07,07:30:00,25.5
2018-12-07,07:40:00,25.5
2018-12-07,07:50:00,25.49
2018-12-07,08:00:00,25.49
2018-12-07,08:10:00,25.48
2018-12-07,08:20:00,25.48
2018-12-07,08:30:00,25.46
2018-12-07,08:40:00,25.46
2018-12-07,08:50:00,25.46
2018-12-07,09:00:00,25.44
2018-12-07,09:10:00,25.43
2018-12-07,09:20:00,25.42
2018-12-07,09:30:00,25.42
2018-12-07,09:40:00,25.41
2018-12-07,09:50:00,25.41
2018-12-07,10:00:00,25.4
2018-12-07,10:10:00,25.4
2018-12-07,10:20:00,25.38